This is the latest recevied weather packets stored in our database for station/object KC3QJO. If no packets are shown the sender has not sent any weather packets the latest 10 day(s).
| Time | Temp. | Humidity | Pressure | Rain* | Wind** | Luminosity | Snow |
|---|---|---|---|---|---|---|---|
| 1778194554 | 15° C | 37% | 1006.8 hPa | 0 mm | - | 42 W/m² | - |
| 1778194252 | 15° C | 38% | 1006.8 hPa | 0 mm | - | 51 W/m² | - |
| 1778192755 | 15.56° C | 38% | 1006.9 hPa | 0 mm | - | 90 W/m² | - |
| 1778192451 | 15.56° C | 36% | 1006.8 hPa | 0 mm | - | 134 W/m² | - |
| 1778191852 | 16.11° C | 36% | 1006.8 hPa | 0 mm | - | 109 W/m² | - |
| 1778184960 | 15.56° C | 37% | 1006.8 hPa | 0 mm | - | 153 W/m² | - |
| 1778184654 | 15.56° C | 37% | 1006.9 hPa | 0 mm | - | 137 W/m² | - |
| 1778184352 | 16.11° C | 37% | 1006.9 hPa | 0 mm | - | 121 W/m² | - |
| 1778181954 | 15.56° C | 35% | 1007.3 hPa | 0 mm | - | 754 W/m² | - |
| 1778181358 | 16.11° C | 36% | 1007.4 hPa | 0 mm | - | 784 W/m² | - |
| 1778180753 | 16.67° C | 34% | 1007.4 hPa | 0 mm | - | 186 W/m² | - |
| 1778178955 | 17.78° C | 34% | 1007.8 hPa | 0 mm | - | 805 W/m² | - |
| 1778178661 | 17.22° C | 34% | 1007.7 hPa | 0 mm | - | 814 W/m² | - |
| 1778177153 | 16.67° C | 35% | 1007.9 hPa | 0 mm | - | 891 W/m² | - |
| 1778176551 | 16.67° C | 33% | 1008.1 hPa | 0 mm | - | 858 W/m² | - |
| 1778174752 | 15.56° C | 33% | 1008.7 hPa | 0 mm | - | 828 W/m² | - |
| 1778174155 | 16.11° C | 33% | 1008.9 hPa | 0 mm | - | 828 W/m² | - |
| 1778171752 | 15.56° C | 34% | 1009.4 hPa | 0 mm | - | 828 W/m² | - |
| 1778170556 | 14.44° C | 36% | 1009.7 hPa | 0 mm | - | 816 W/m² | - |
| 1778169055 | 15° C | 38% | 1009.9 hPa | 0 mm | - | 802 W/m² | - |
| 1778167256 | 15° C | 43% | 1010.3 hPa | 0 mm | - | 766 W/m² | - |
| 1778166354 | 13.89° C | 42% | 1010.5 hPa | 0 mm | - | 744 W/m² | - |
| 1778165451 | 13.89° C | 42% | 1010.8 hPa | 0 mm | - | 721 W/m² | - |
| 1778164853 | 13.33° C | 43% | 1010.8 hPa | 0 mm | - | 703 W/m² | - |
| 1778164265 | 12.78° C | 43% | 1010.9 hPa | 0 mm | - | 686 W/m² | - |
* Rain latest hour (hover to see other rain measurements)
** Current wind speed in m/s (hover to see current wind gust speed)